Flag for Austria Weather past 2 weeks in Klagenfurt, Carinthia, Austria

Now
64 °F

Rain. Broken clouds.


Feels Like: 64 °F
Forecast: 62 / 78 °F
Wind: 1 mph from North

Location: Klagenfurt-Flughafen

Current Time: Jul 22, 2014 at 10:30:21 PM

Latest Report: Jul 22, 2014 at 6:50 PM


Visibility: N/A

Pressure: 29.86 "Hg

Humidity: 88%

Dew point: 61 °F

Location of KlagenfurtLocation

Historic Weather in Klagenfurt — Graph

°F

Klagenfurt temperature yesterday

Maximum temperature yesterday: 75 °F (at 12:20 AM)
Minimum temperature yesterday: 61 °F (at 11:50 PM)
Average temperature yesterday: 69 °F

Past Weeks' High & Low Weather Summary

 TemperatureHumidityPressure
High90 °F (Jul 20, 3:20 PM)100% (Jul 10, 2:50 AM)30.21 "Hg (Jul 10, 2:50 AM)
Low54 °F (Jul 11, 5:50 AM)35% (Jul 18, 4:20 PM)29.68 "Hg (Jul 8, 4:50 PM)
Average67 °F75%29.95 "Hg
* Reported Jul 7 6:20 PM — Jul 22 6:50 PM, Klagenfurt, Weather by CustomWeather, © 2014

Note: Actual official high and low records may vary slightly from our data, if they occured in-between our weather recording intervals... More about our weather records

Advertising

Klagenfurt weather history for previous 24 hours

 ConditionsComfort  
Time TempWeatherWind HumidityBarometerVisibility
6:50 PM
Jul 22
64 °FRain. Broken clouds.1 mph88%29.86 "HgN/A
6:20 PM64 °FLight rain. Broken clouds.2 mph94%29.86 "HgN/A
5:50 PM64 °FLight rain. Broken clouds.1 mph94%29.86 "HgN/A
5:20 PM64 °FLight rain. Broken clouds.2 mph88%29.86 "HgN/A
4:50 PM64 °FRain. Broken clouds.5 mph88%29.83 "HgN/A
4:20 PM66 °FRain showers. Partly sunny.12 mph88%29.83 "HgN/A
3:50 PM72 °FBroken clouds.5 mph73%29.83 "HgN/A
3:20 PM72 °FPartly sunny.3 mph73%29.80 "HgN/A
2:50 PM72 °FPartly sunny.3 mph73%29.83 "HgN/A
2:20 PM72 °FBroken clouds.3 mph73%29.83 "HgN/A
1:50 PM72 °FBroken clouds.2 mph69%29.83 "HgN/A
1:20 PM70 °FBroken clouds.1 mph73%29.83 "HgN/A
12:50 PM70 °FBroken clouds.3 mph73%29.83 "HgN/A
12:20 PM70 °FBroken clouds.2 mph73%29.83 "HgN/A
11:50 AM68 °FSprinkles. Partly sunny.1 mph78%29.83 "HgN/A
11:20 AM66 °FSprinkles. Broken clouds.2 mph83%29.86 "HgN/A
10:50 AM64 °FBroken clouds.5 mph88%29.86 "HgN/A
10:20 AM64 °FBroken clouds.3 mph83%29.86 "HgN/A
9:50 AM63 °FSprinkles. Broken clouds.1 mph88%29.86 "HgN/A
9:20 AM63 °FBroken clouds.1 mph88%29.86 "HgN/A
8:50 AM61 °FBroken clouds.2 mph94%29.86 "HgN/A
8:20 AM61 °FBroken clouds.2 mph94%29.83 "HgN/A
7:50 AM61 °FPartly sunny.2 mph94%29.83 "Hg5 mi
7:20 AM61 °FPartly sunny.2 mph94%29.83 "Hg5 mi
6:50 AM61 °FPartly sunny.1 mph94%29.83 "Hg5 mi
6:20 AM61 °FPartly cloudy.1 mph94%29.83 "Hg5 mi
5:50 AM61 °FPartly cloudy.1 mph94%29.83 "Hg4 mi
5:20 AM59 °FPartly cloudy.1 mph94%29.83 "Hg4 mi
4:50 AM59 °FPassing clouds.2 mph94%29.83 "HgN/A
4:20 AM61 °FPassing clouds.2 mph94%29.83 "HgN/A
3:50 AM59 °FPassing clouds.2 mph100%29.83 "HgN/A
3:20 AM61 °FPassing clouds.2 mph88%29.83 "HgN/A
2:50 AM61 °FPassing clouds.2 mph88%29.83 "HgN/A
2:20 AM61 °FPassing clouds.1 mph94%29.83 "HgN/A
1:50 AM61 °FPassing clouds.1 mph94%29.83 "HgN/A
1:20 AM61 °FSleet. Fog.1 mph100%29.83 "HgN/A
12:50 AM61 °FPassing clouds.1 mph94%29.83 "HgN/A
12:20 AM61 °FSleet. Light fog.1 mph94%29.83 "Hg5 mi
11:50 PM
Jul 21
61 °FSleet. Light fog.1 mph100%29.83 "HgN/A
11:20 PM63 °FFog.2 mph94%29.83 "HgN/A
10:50 PM63 °FPassing clouds.1 mph94%29.83 "HgN/A
10:20 PM63 °FPassing clouds.3 mph94%29.83 "HgN/A
Weather by CustomWeather, © 2014

See weather overviewHow to use our weather pages